Regional Weather Roundup
Issued by NWS

Home | Current Version | Previous Version | Graphics & Text | Print | Product List | Glossary On
Versions: 1 2 3 4 5 6 7 8 9 10 11 12 13 14 15 16 17 18 19 20 21 22 23 24 25 26 27 28 29 30 31 32 33 34 35 36 37 38 39 40 41 42 43 44 45 46 47 48 49 50
000
ASUS43 KBIS 011320
RWRND

NORTH DAKOTA REGIONAL WEATHER ROUNDUP
NATIONAL WEATHER SERVICE BISMARCK ND
800 AM CDT WED OCT 01 2014

NOTE: "FAIR" INDICATES FEW OR NO CLOUDS BELOW 12,000 FEET WITH NO
SIGNIFICANT WEATHER AND/OR OBSTRUCTIONS TO VISIBILITY.


NDZ001>003-009>011-017-011400-
NORTHWEST NORTH DAKOTA

CITY           SKY/WX    TMP DP  RH WIND       PRES   REMARKS
WILLISTON      CLOUDY    53  49  86 W20G28    29.61R
MINOT          CLOUDY    54  51  90 SW12      29.50R
MINOT AFB      CLOUDY    54  54 100 W14       29.49R
$$

NDZ018>021-031>035-040>046-011400-
SOUTHWEST NORTH DAKOTA

CITY           SKY/WX    TMP DP  RH WIND       PRES   REMARKS
BISMARCK       CLOUDY    56  50  80 W13G23    29.63R
DICKINSON      MOCLDY    52  48  86 W22G28    29.65R
GARRISON         N/A     54  51  90 W16G26    29.56R
HETTINGER ARPT CLOUDY    52  49  89 W14       29.72R
$$

NDZ004>008-012>016-024-026-027-054-011400-
NORTHEAST NORTH DAKOTA

CITY           SKY/WX    TMP DP  RH WIND       PRES   REMARKS
GRAND FORKS    CLOUDY    58  53  84 S12G17    29.55S
GRND FRKS AFB  CLOUDY    57  55  94 S12       29.56S
DEVILS LAKE    CLOUDY    55  48  76 SW21      29.52R
$$

NDZ022-023-025-028>030-036>039-047>053-011400-
SOUTHEAST NORTH DAKOTA

CITY           SKY/WX    TMP DP  RH WIND       PRES   REMARKS
FARGO          PTCLDY    59  55  87 S13       29.64R
JAMESTOWN      PTCLDY    53  50  89 S10       29.61R
$$




USA.gov is the U.S. government's official web portal to all federal, state and local government web resources and services.